Погода в Малакановском

Россия / Кабардино-Балкарская Республика     44°00′24″N   44°23′32″E
темп.,
°C
ветер,
м/с
пор.,
м/с
влажн.,
%
обл.,
%
осадки,
мм/ч
давл.,
гПа
погр.,
м
26 февраля, пт
пт2600:00−2зюз4583100 0.0 103086
03:00−1зюз4579100 0.0 102987
06:00−1юз5878100 0.0 1028141
09:00+1зюз51071100 0.0 1027263
12:00+6з61370100 0.0 1026699
15:00+7з51071100 0.0 1024785
18:00+3зюз448591 0.0 102556
21:00+3зюз467792 0.0 102599
27 февраля, сб
сб2700:00+3зюз3478100 0.1 102358
03:00+2зюз457497 0.1 102274
06:00+3юз487298 0.0 1021110
09:00+4зюз237198 0.0 102174
12:00+9ююз336348 0.0 1018273
15:00+10ююз346725 0.0 1017461
18:00+7ююз337776 0.0 101733
21:00+6з238188 0.0 101728
28 февраля, вс
вс2800:00+5юз227788 0.0 101622
03:00+4юз237958 0.0 101527
06:00+4зсз2281100 0.1 101534
09:00+5с019098 0.6 1015108
12:00+6ссз2286100 0.1 1014283
15:00+5сз3591100 0.2 1014374
18:00+5сз4696100 1.0 1016261
21:00+3ссз4697100 4.3 1018343
1 марта, пн
пн100:00+2сз4796100 1.6 1019347
03:00+2ссз3597100 2.1 1020262
06:00+1сз2398100 1.6 1022146
09:00+1з2297100 2.8 1024133
12:00+2зсз2396100 0.4 1025202
15:00+4зюз2379100 0.5 1025590
18:00+3юз348797 0.1 1026167
21:00+1сз238374 0.2 102845
2 марта, вт
вт200:000сз129466 0.0 102936
03:000с119278 0.0 1029180
06:000ссв119399 0.0 102932
09:00+1ююв118599 0.0 1029334
12:00+3зсз017597 0.0 1028643
15:00+4сз126798 0.1 1027798
18:00+3сз2274100 0.0 102761
21:000сз338179 0.0 102746